Location: Newark
(43.4306°N, 0.3089°E)
Time: 19:58:39
(UTC+00:00)

S-56A Canister/Altair - Pass Details

Date: 26 August 2019
Orbit: 633 x 2499 km, 38.9° (Epoch: 18 October)

Event Time Altitude Azimuth Distance (km) Brightness Sun altitude
Rises 17:52:29 0° 206° (SSW) 4,163 11.6 8.5°
Reaches altitude 10° 17:57:02 10° 185° (S) 2,814 10.4 7.7°
Maximum altitude 18:00:29 15° 152° (SSE) 2,214 9.6 7.1°
Drops below altitude 10° 18:03:27 10° 119° (ESE) 2,341 9.5 6.6°
Sets 18:06:38 0° 94° (E) 3,086 9.9 6.0°
